EZY9002 EGGD-EGJJ

Flight info

Callsign EZY9002
Flight time 0h 35m
Altitude 17000
Route EGGD EXMOR1Z EXMOR N92 DAWLY N864 SKERY SKERY1K EGJJ
Aircraft A20N/M-SDE2E3FGHIRWXY/LB1

Departure

Time 2026-05-04 17:56
Airport Bristol Airport (EGGD)

Arrival

Time 2026-05-04 18:31
Airport Jersey Airport (EGJJ)
Time Latitude Longitude Altitude Speed Heading
2026-05-04 17:31 51.38537 -2.71674 620 ft 0 kts 356°
2026-05-04 17:34 51.38521 -2.72112 610 ft 0 kts 284°
2026-05-04 17:48 51.38520 -2.72108 610 ft 3 kts 284°
2026-05-04 17:48 51.38514 -2.72068 614 ft 4 kts 276°
2026-05-04 17:48 51.38519 -2.72037 618 ft 4 kts 204°
2026-05-04 17:49 51.38537 -2.72031 623 ft 3 kts 180°
2026-05-04 17:49 51.38541 -2.72031 613 ft 0 kts 181°
2026-05-04 17:50 51.38537 -2.72031 623 ft 1 kts 181°
2026-05-04 17:50 51.38522 -2.72031 616 ft 3 kts 178°
2026-05-04 17:50 51.38493 -2.72029 624 ft 6 kts 177°
2026-05-04 17:51 51.38488 -2.72028 623 ft 0 kts 177°
2026-05-04 17:53 51.38482 -2.72028 613 ft 3 kts 177°
2026-05-04 17:53 51.38445 -2.72037 616 ft 7 kts 213°
2026-05-04 17:53 51.38430 -2.72108 608 ft 6 kts 266°
2026-05-04 17:53 51.38427 -2.72179 620 ft 6 kts 266°
2026-05-04 17:54 51.38423 -2.72275 616 ft 9 kts 266°
2026-05-04 17:54 51.38419 -2.72384 614 ft 10 kts 266°
2026-05-04 17:54 51.38413 -2.72533 618 ft 27 kts 266°
2026-05-04 17:54 51.38401 -2.72861 611 ft 31 kts 267°
2026-05-04 17:55 51.38387 -2.73197 612 ft 26 kts 266°
2026-05-04 17:55 51.38279 -2.73340 627 ft 20 kts 174°
2026-05-04 17:55 51.38220 -2.73314 630 ft 4 kts 126°
2026-05-04 17:55 51.38220 -2.73155 635 ft 51 kts 86°
2026-05-04 17:56 51.38270 -2.71989 627 ft 156 kts 86°
2026-05-04 17:56 51.38360 -2.70082 1069 ft 183 kts 83°
2026-05-04 17:56 51.38495 -2.67936 1719 ft 204 kts 82°
2026-05-04 17:56 51.38586 -2.65504 2628 ft 231 kts 86°
2026-05-04 17:57 51.38636 -2.62875 3971 ft 241 kts 87°
2026-05-04 17:57 51.38694 -2.60135 5112 ft 252 kts 87°
2026-05-04 17:57 51.38725 -2.57304 6038 ft 256 kts 92°
2026-05-04 17:57 51.38474 -2.54475 6800 ft 259 kts 105°
2026-05-04 17:58 51.37809 -2.51789 7495 ft 261 kts 120°
2026-05-04 17:58 51.36734 -2.49439 8130 ft 263 kts 135°
2026-05-04 17:58 51.35332 -2.47620 8862 ft 263 kts 149°
2026-05-04 17:58 51.33672 -2.46397 9573 ft 263 kts 164°
2026-05-04 17:59 51.31867 -2.45883 10214 ft 265 kts 178°
2026-05-04 17:59 51.29935 -2.46142 10808 ft 295 kts 192°
2026-05-04 17:59 51.26215 -2.49530 12054 ft 321 kts 224°
2026-05-04 18:00 51.24741 -2.52236 12654 ft 326 kts 234°
2026-05-04 18:00 51.23568 -2.55347 12950 ft 329 kts 242°
2026-05-04 18:00 51.22852 -2.58835 13010 ft 334 kts 259°
2026-05-04 18:00 51.22922 -2.62582 13010 ft 352 kts 277°
2026-05-04 18:01 51.23481 -2.66563 12996 ft 379 kts 283°
2026-05-04 18:01 51.24182 -2.70684 13002 ft 386 kts 284°
2026-05-04 18:01 51.24908 -2.74824 13093 ft 389 kts 284°
2026-05-04 18:02 51.26370 -2.83172 14079 ft 392 kts 284°
2026-05-04 18:02 51.27094 -2.87322 14609 ft 393 kts 283°
2026-05-04 18:02 51.27845 -2.91653 15159 ft 409 kts 283°
2026-05-04 18:02 51.28499 -2.96080 15694 ft 418 kts 276°
2026-05-04 18:03 51.28481 -3.00707 16249 ft 419 kts 259°
2026-05-04 18:03 51.27618 -3.05144 16772 ft 418 kts 245°
2026-05-04 18:03 51.26362 -3.09336 16997 ft 419 kts 242°
2026-05-04 18:03 51.25028 -3.13495 17013 ft 421 kts 241°
2026-05-04 18:04 51.23686 -3.17660 17011 ft 422 kts 241°
2026-05-04 18:04 51.22349 -3.21835 17012 ft 422 kts 241°
2026-05-04 18:04 51.18879 -3.29221 17008 ft 419 kts 220°
2026-05-04 18:05 51.16441 -3.31760 17009 ft 417 kts 205°
2026-05-04 18:05 51.13717 -3.33315 17020 ft 415 kts 195°
2026-05-04 18:05 51.10893 -3.34299 17013 ft 414 kts 189°
2026-05-04 18:05 51.08047 -3.34974 17007 ft 413 kts 187°
2026-05-04 18:06 51.02333 -3.36065 17003 ft 413 kts 186°
2026-05-04 18:06 50.99480 -3.36630 17000 ft 413 kts 187°
2026-05-04 18:06 50.96628 -3.37235 17002 ft 413 kts 187°
2026-05-04 18:07 50.93816 -3.37864 17000 ft 413 kts 188°
2026-05-04 18:07 50.90970 -3.38523 16994 ft 413 kts 188°
2026-05-04 18:07 50.88118 -3.39194 16997 ft 413 kts 188°
2026-05-04 18:07 50.85274 -3.39869 16997 ft 413 kts 188°
2026-05-04 18:08 50.82432 -3.40543 16992 ft 413 kts 188°
2026-05-04 18:08 50.79571 -3.41219 16994 ft 414 kts 188°
2026-05-04 18:08 50.76718 -3.41891 16997 ft 414 kts 188°
2026-05-04 18:08 50.73849 -3.42564 16997 ft 418 kts 188°
2026-05-04 18:09 50.68076 -3.43914 16998 ft 420 kts 188°
2026-05-04 18:09 50.62322 -3.45242 16994 ft 420 kts 186°
2026-05-04 18:10 50.59409 -3.45429 16993 ft 415 kts 176°
2026-05-04 18:10 50.56590 -3.44757 16997 ft 406 kts 167°
2026-05-04 18:10 50.53862 -3.43600 16994 ft 404 kts 163°
2026-05-04 18:10 50.51171 -3.42325 16991 ft 403 kts 163°
2026-05-04 18:11 50.48492 -3.41019 16991 ft 403 kts 162°
2026-05-04 18:11 50.45818 -3.39706 16992 ft 403 kts 162°
2026-05-04 18:11 50.43142 -3.38389 16993 ft 403 kts 162°
2026-05-04 18:11 50.40465 -3.37071 16992 ft 403 kts 162°
2026-05-04 18:12 50.37826 -3.35773 16990 ft 403 kts 162°
2026-05-04 18:12 50.35147 -3.34456 16990 ft 403 kts 162°
2026-05-04 18:12 50.32468 -3.33141 16988 ft 403 kts 162°
2026-05-04 18:12 50.29793 -3.31828 16994 ft 403 kts 162°
2026-05-04 18:13 50.27108 -3.30512 16989 ft 403 kts 162°
2026-05-04 18:13 50.24420 -3.29196 16995 ft 403 kts 162°
2026-05-04 18:13 50.19064 -3.26579 16997 ft 403 kts 162°
2026-05-04 18:14 50.16383 -3.25271 16999 ft 403 kts 162°
2026-05-04 18:14 50.13703 -3.23966 16998 ft 415 kts 162°
2026-05-04 18:14 50.10919 -3.22610 16991 ft 421 kts 162°
2026-05-04 18:15 50.05302 -3.19882 16994 ft 423 kts 162°
2026-05-04 18:15 49.99770 -3.16866 16868 ft 406 kts 152°
2026-05-04 18:15 49.97423 -3.14715 16726 ft 379 kts 147°
2026-05-04 18:16 49.95304 -3.12563 16590 ft 357 kts 146°
2026-05-04 18:16 49.93279 -3.10474 16447 ft 344 kts 146°
2026-05-04 18:16 49.91297 -3.08432 16304 ft 343 kts 146°
2026-05-04 18:17 49.87317 -3.04356 15918 ft 342 kts 146°
2026-05-04 18:17 49.85330 -3.02328 15710 ft 341 kts 146°
2026-05-04 18:17 49.81379 -2.98307 15309 ft 339 kts 146°
2026-05-04 18:18 49.79410 -2.96307 15107 ft 337 kts 147°
2026-05-04 18:18 49.77452 -2.94320 14910 ft 336 kts 147°
2026-05-04 18:18 49.75498 -2.92339 14690 ft 335 kts 147°
2026-05-04 18:18 49.73556 -2.90372 14448 ft 334 kts 147°
2026-05-04 18:19 49.69646 -2.86419 13958 ft 369 kts 147°
2026-05-04 18:19 49.67409 -2.84160 13684 ft 399 kts 147°
2026-05-04 18:19 49.65071 -2.81803 13412 ft 401 kts 147°
2026-05-04 18:20 49.62812 -2.79528 13145 ft 375 kts 147°
2026-05-04 18:20 49.60696 -2.77399 12897 ft 352 kts 147°
2026-05-04 18:20 49.58707 -2.75399 12646 ft 332 kts 147°
2026-05-04 18:20 49.56822 -2.73507 12401 ft 315 kts 147°
2026-05-04 18:21 49.55027 -2.71706 12154 ft 300 kts 147°
2026-05-04 18:21 49.53315 -2.69989 11896 ft 288 kts 147°
2026-05-04 18:21 49.51659 -2.68330 11599 ft 281 kts 147°
2026-05-04 18:21 49.50024 -2.66694 11289 ft 279 kts 147°
2026-05-04 18:22 49.48419 -2.65089 10961 ft 279 kts 147°
2026-05-04 18:22 49.46793 -2.63464 10637 ft 278 kts 147°
2026-05-04 18:22 49.45172 -2.61845 10320 ft 278 kts 147°
2026-05-04 18:22 49.43526 -2.60323 10013 ft 276 kts 152°
2026-05-04 18:23 49.41803 -2.59020 9673 ft 272 kts 154°
2026-05-04 18:23 49.40101 -2.57810 9217 ft 268 kts 155°
2026-05-04 18:23 49.38422 -2.56628 8745 ft 262 kts 155°
2026-05-04 18:23 49.36793 -2.55483 8285 ft 253 kts 155°
2026-05-04 18:24 49.35200 -2.54440 7833 ft 245 kts 160°
2026-05-04 18:24 49.33592 -2.53696 7382 ft 239 kts 164°
2026-05-04 18:24 49.31997 -2.53065 6943 ft 235 kts 168°
2026-05-04 18:24 49.30401 -2.52619 6501 ft 232 kts 170°
2026-05-04 18:25 49.28817 -2.52212 6046 ft 229 kts 170°
2026-05-04 18:25 49.27245 -2.51811 5590 ft 228 kts 170°
2026-05-04 18:25 49.25685 -2.51419 5135 ft 227 kts 170°
2026-05-04 18:25 49.24149 -2.51039 4687 ft 226 kts 170°
2026-05-04 18:26 49.22600 -2.50661 4227 ft 225 kts 170°
2026-05-04 18:26 49.21059 -2.50286 3764 ft 224 kts 170°
2026-05-04 18:26 49.19559 -2.49715 3291 ft 221 kts 148°
2026-05-04 18:26 49.18637 -2.47983 3020 ft 207 kts 105°
2026-05-04 18:27 49.18571 -2.45924 2993 ft 185 kts 81°
2026-05-04 18:27 49.18767 -2.44072 3042 ft 166 kts 80°
2026-05-04 18:27 49.18870 -2.42930 3024 ft 162 kts 82°
2026-05-04 18:27 49.19053 -2.40668 2947 ft 161 kts 82°
2026-05-04 18:28 49.19142 -2.39535 2801 ft 162 kts 82°
2026-05-04 18:28 49.19283 -2.37833 2560 ft 161 kts 81°
2026-05-04 18:28 49.19422 -2.36159 2354 ft 158 kts 81°
2026-05-04 18:28 49.19560 -2.34500 2125 ft 158 kts 81°
2026-05-04 18:29 49.19697 -2.32838 1913 ft 157 kts 81°
2026-05-04 18:29 49.19834 -2.31178 1697 ft 157 kts 81°
2026-05-04 18:29 49.19971 -2.29523 1485 ft 157 kts 81°
2026-05-04 18:29 49.20108 -2.27871 1270 ft 156 kts 80°
2026-05-04 18:30 49.20364 -2.24758 846 ft 131 kts 81°
2026-05-04 18:30 49.20472 -2.23454 688 ft 118 kts 78°
2026-05-04 18:30 49.20574 -2.22233 531 ft 114 kts 79°
2026-05-04 18:31 49.20673 -2.21035 389 ft 115 kts 79°
2026-05-04 18:31 49.20772 -2.19841 287 ft 104 kts 82°
2026-05-04 18:31 49.20819 -2.19300 288 ft 17 kts 82°
2026-05-04 18:31 49.20807 -2.19108 286 ft 20 kts 104°
2026-05-04 18:32 49.20760 -2.18903 288 ft 16 kts 115°
2026-05-04 18:32 49.20754 -2.18885 285 ft 2 kts 116°
2026-05-04 18:32 49.20749 -2.18870 285 ft 1 kts 118°
2026-05-04 18:32 49.20723 -2.18846 286 ft 8 kts 181°
2026-05-04 18:33 49.20706 -2.18885 288 ft 5 kts 255°
2026-05-04 18:33 49.20696 -2.18958 286 ft 8 kts 263°
2026-05-04 18:33 49.20689 -2.19048 290 ft 10 kts 261°
2026-05-04 18:33 49.20679 -2.19167 284 ft 13 kts 268°
2026-05-04 18:34 49.20694 -2.19293 284 ft 11 kts 284°
2026-05-04 18:34 49.20705 -2.19396 284 ft 9 kts 269°
2026-05-04 18:34 49.20702 -2.19472 284 ft 6 kts 270°
2026-05-04 18:34 49.20699 -2.19527 284 ft 4 kts 260°
2026-05-04 18:35 49.20692 -2.19575 283 ft 4 kts 254°
2026-05-04 18:35 49.20683 -2.19609 285 ft 2 kts 240°
2026-05-04 18:35 49.20667 -2.19636 286 ft 3 kts 225°
2026-05-04 18:35 49.20642 -2.19668 283 ft 5 kts 217°
2026-05-04 18:36 49.20623 -2.19701 283 ft 4 kts 237°
2026-05-04 18:36 49.20611 -2.19752 283 ft 5 kts 262°
2026-05-04 18:36 49.20609 -2.19795 283 ft 4 kts 266°
2026-05-04 18:36 49.20607 -2.19829 283 ft 3 kts 264°
2026-05-04 18:37 49.20584 -2.19930 285 ft 10 kts 215°
2026-05-04 18:37 49.20526 -2.19929 283 ft 7 kts 174°
2026-05-04 18:37 49.20483 -2.19923 283 ft 5 kts 175°
2026-05-04 18:37 49.20452 -2.19917 283 ft 4 kts 170°
2026-05-04 18:38 49.20425 -2.19904 286 ft 0 kts 164°
2026-05-04 18:38 49.20421 -2.19897 285 ft 1 kts 128°
2026-05-04 18:38 49.20422 -2.19880 287 ft 4 kts 77°
2026-05-04 18:38 49.20436 -2.19795 283 ft 9 kts 79°
2026-05-04 18:39 49.20442 -2.19739 283 ft 4 kts 82°
2026-05-04 18:39 49.20444 -2.19702 283 ft 3 kts 82°
2026-05-04 18:39 49.20455 -2.19681 286 ft 2 kts 28°
2026-05-04 18:39 49.20478 -2.19678 283 ft 4 kts
2026-05-04 18:40 49.20497 -2.19676 283 ft 0 kts